MST,Max TemperatureF,Mean TemperatureF,Min TemperatureF,Max Dew PointF,MeanDew PointF,Min DewpointF,Max Humidity, Mean Humidity, Min Humidity, Max Sea Level PressureIn, Mean Sea Level PressureIn, Min Sea Level PressureIn, Max VisibilityMiles, Mean VisibilityMiles, Min VisibilityMiles, Max Wind SpeedMPH, Mean Wind SpeedMPH, Max Gust SpeedMPH,PrecipitationIn, CloudCover, Events, WindDirDegrees
2012-12-1,52,43,33,29,23,18,60,46,32,29.96,29.86,29.74,10,10,10,40,16,48,0.00,2,,244
2012-12-2,58,43,28,27,17,13,58,38,18,29.94,29.73,29.55,10,10,10,39,15,47,0.00,1,,212
2012-12-3,44,32,19,31,6,-7,70,43,15,30.26,29.97,29.55,10,10,10,44,17,53,0.00,1,,267
2012-12-4,48,33,17,19,10,2,56,38,19,30.37,30.23,30.04,10,10,10,33,15,38,0.00,1,,225
2012-12-5,55,46,36,26,23,17,59,42,24,30.04,29.90,29.75,10,10,10,39,20,47,0.00,3,,247
2012-12-6,46,36,25,25,20,11,81,53,25,29.99,29.84,29.74,10,10,10,35,12,41,0.00,0,,244
2012-12-7,36,27,18,21,14,7,67,50,32,29.94,29.81,29.70,10,10,10,38,20,45,0.00,2,,262
2012-12-8,28,18,8,23,15,-1,88,70,51,30.01,29.74,29.63,10,6,0,36,19,43,T,7,Fog-Snow,287
2012-12-9,12,5,-2,3,-2,-9,87,73,58,30.35,30.19,29.91,10,10,8,30,10,37,T,2,Snow,311
2012-12-10,25,16,6,16,8,1,83,67,50,30.08,29.96,29.82,10,9,2,36,20,47,T,6,Snow,288
2012-12-11,31,18,5,14,10,4,92,70,47,30.03,29.93,29.81,10,10,10,33,14,40,0.00,2,,241
2012-12-12,43,33,22,14,13,12,65,47,29,29.90,29.80,29.67,10,10,10,38,19,46,0.00,0,,224
2012-12-13,57,39,20,14,11,7,57,37,17,29.96,29.86,29.76,10,10,10,24,10,30,0.00,0,,216
2012-12-14,60,40,19,16,10,7,69,39,17,29.78,29.59,29.39,10,10,10,21,6,25,0.00,3,,131
2012-12-15,33,26,19,27,21,14,84,73,62,29.75,29.68,29.61,10,8,2,22,9,24,T,6,Snow,238
2012-12-16,30,24,17,17,11,7,91,65,39,29.81,29.72,29.65,10,10,10,37,19,45,T,3,,263
2012-12-17,38,30,22,27,18,10,92,68,44,29.72,29.60,29.49,10,8,0,47,25,59,0.01,6,Fog-Snow,274
2012-12-18,24,18,12,16,11,5,92,74,55,29.81,29.72,29.63,10,6,0,30,12,35,0.06,7,Fog-Snow,312
2012-12-19,15,2,-11,12,4,-14,96,79,62,30.38,29.87,29.61,10,4,0,20,12,23,0.03,4,Fog-Snow,360
2012-12-20,27,8,-11,10,2,-9,79,58,36,30.51,30.35,30.09,10,8,2,38,19,44,0.00,0,Snow,225
2012-12-21,40,29,17,11,5,2,52,38,23,30.31,30.17,30.06,10,10,10,29,14,39,0.00,0,,205
2012-12-22,40,29,18,15,3,-5,49,34,19,30.13,30.02,29.92,10,10,10,23,9,25,0.00,0,,203
2012-12-23,32,25,18,20,12,-4,68,46,24,30.06,29.97,29.88,10,10,10,28,10,35,0.00,3,,247
2012-12-24,31,22,13,25,18,9,92,76,60,29.91,29.74,29.65,10,4,0,26,10,32,0.08,8,Fog-Snow,140
2012-12-25,13,1,-12,9,-2,-11,95,87,79,30.34,30.05,29.81,10,4,0,15,6,17,0.02,4,Fog-Snow,116
2012-12-26,29,13,-3,18,11,-7,100,77,53,30.14,29.74,29.52,10,7,0,15,6,17,0.01,7,Fog-Snow,287
2012-12-27,14,7,0,11,5,-2,100,90,80,30.04,29.79,29.54,10,8,0,23,8,29,T,7,Fog-Snow,11
2012-12-28,18,8,-3,8,1,-5,95,78,61,30.28,30.16,30.03,10,10,6,21,6,24,T,5,Snow,250
2012-12-29,16,5,-7,4,-2,-10,87,73,58,30.38,30.25,30.14,10,10,10,24,7,28,0.00,0,,114
2012-12-30,24,10,-5,9,3,-7,88,71,53,30.17,30.10,30.04,10,10,10,30,11,35,0.00,1,,294
2012-12-31,13,0,-13,9,0,-15,100,88,76,30.27,30.00,29.83,10,6,0,15,7,17,T,5,Fog-Snow,168